Regional Weather Roundup
Issued by NWS

Home | Current Version | Previous Version | Text Only | Print | Product List | Glossary Off
Versions: 1 2 3 4 5 6 7 8 9 10 11 12 13 14 15 16 17 18 19 20 21 22 23 24 25 26 27 28 29 30 31 32 33 34 35 36 37 38 39 40 41 42 43 44 45 46 47 48 49 50

861
ASUS45 KBOU 290807
RWRCO

WEATHER ROUNDUP FOR COLORADO
NATIONAL WEATHER SERVICE DENVER/BOULDER CO
200 AM MDT SAT JUL 29 2017

NOTE: "FAIR" INDICATES FEW OR NO CLOUDS BELOW 12000 FEET WITH NO
SIGNIFICANT WEATHER AND/OR OBSTRUCTIONS TO VISIBILITY.

COZ001>005-013-030-031-290900-
...NORTHWEST COLORADO...

CITY           SKY/WX    TMP DP  RH WIND       PRES   REMARKS
CRAIG          FAIR      59  51  75 CALM      30.24R
HAYDEN         FAIR      63  45  51 CALM      30.25S
MEEKER         MOCLDY    62  53  72 NE6       30.26S
RABBIT EARS PA CLOUDY    54  43  66 NW8       30.54F
STEAMBOAT SPGS FAIR      59  48  66 CALM      30.28S
WALDEN         MOCLDY    57  43  58 SE5       30.36F
$$

COZ006>008-011-290900-
...WEST CENTRAL VALLEYS...

CITY           SKY/WX    TMP DP  RH WIND       PRES   REMARKS
GRAND JUNCTION FAIR      67  61  81 SE17      30.17S
MONTROSE       LGT RAIN  63  62  97 SE7       30.26F
EAGLE          CLOUDY    63  54  72 E7        30.30S
RIFLE          FAIR      65  62  90 SW5       30.22S
DELTA          RAIN      65  62  90 NE3       30.23S
NUCLA          FAIR      63  59  88 N5        30.28S
$$

COZ017>023-064>068-290900-
...SOUTHWEST COLORADO...

CITY           SKY/WX    TMP DP  RH WIND       PRES   REMARKS
DURANGO        CLOUDY    61  61 100 CALM      30.28F
CORTEZ         CLOUDY    63  62  97 CALM      30.22F
PAGOSA SPRINGS LGT RAIN  58  58  99 E5        30.36S
TELLURIDE      DRIZZLE   53  53 100 CALM      30.45F
WOLF CREEK PAS RAIN      43  43 100 CALM      30.65F VSB 1/4
$$

COZ009-010-012-014-032>034-037-058>063-290900-
...CENTRAL COLORADO...

CITY           SKY/WX    TMP DP  RH WIND       PRES   REMARKS
ASPEN          LGT RAIN  58  55  90 SW5       30.37R
BUENA VISTA    LGT RAIN  57  55  92 CALM      30.40S
COPPER MTN     RAIN      52  41  66 SE8       30.66S
BERTHOUD PASS  CLOUDY    43  32  65 SE10      30.69S
COTTONWOOD PAS LGT RAIN  55  50  82 E9        30.52S
GUNNISON       LGT RAIN  58  56  93 CALM      30.37F
KREMMLING      FAIR      64  52  63 CALM      30.34R
LEADVILLE      LGT RAIN  50  48  93 CALM      30.47F
MONARCH PASS   CLOUDY    45  43  93 E10       30.74S
SALIDA         CLOUDY    59  56  91 CALM      30.45F
SUNLIGHT       CLOUDY    50  41  71 SE7       30.58F
WILKERSON PASS CLOUDY    46  45  93 NE3       30.63F
$$

COZ069>075-290900-
...SAN LUIS VALLEY/SANGRE DE CRISTO MOUNTAINS...

CITY           SKY/WX    TMP DP  RH WIND       PRES   REMARKS
ALAMOSA        CLOUDY    58  57  97 S3        30.35F
DEL NORTE      DRIZZLE   57  55  94 S5        30.38S
LA VETA PASS   NOT AVBL
SAGUACHE         N/A    N/A N/A N/A MISG        N/A
$$

COZ035-036-038>040-290900-
...NORTHERN COLORADO FRONT RANGE...

CITY           SKY/WX    TMP DP  RH WIND       PRES   REMARKS
DENVER INTL AP CLOUDY    69  55  60 S16G24    30.17F
DMNS CITY PARK   N/A     68  58  69 N9        30.19S
AURORA         CLOUDY    66  57  72 S8        30.21F
FRONT RANGE AP CLOUDY    70  55  60 S15G22    30.19F
ERIE MUNI ARPT FAIR      67  60  79 W3        30.17F
BOULDER MUN AP FAIR      68  59  73 CALM      30.18F
CENTENNIAL     MOCLDY    65  57  75 S8        30.22F
BROOMFIELD     MOCLDY    68  59  73 NW8       30.21F
FORT COLLINS   FAIR      69  58  67 SW3       30.16F
LONGMONT       FAIR      70  59  69 CALM      30.18F
$$

COZ041-046-047-076>085-087-088-290900-
...PIKES PEAK/PALMER DIVIDE AND SOUTHERN FOOTHILLS...

CITY           SKY/WX    TMP DP  RH WIND       PRES   REMARKS
COLO. SPRINGS  LGT RAIN  62  60  93 S10       30.31S
A. F. ACADEMY  CLOUDY    61  60  94 S12       30.30F
SCHRIEVER AFB  LGT RAIN  60  59  97 S15       30.31S
CHEYENNE MTN   LGT RAIN  57  56  95 S16G23    30.28F
ELLICOTT       CLOUDY   N/A N/A N/A S9        30.29R
FALCON           N/A     59  58  95 S15       30.34F
FORT CARSON    LGT RAIN  63  61  94 S10       30.28F
LIMON          FAIR      61  59  93 CALM      30.20F
MONUMENT HILL  FAIR      57  54  88 S15G22    30.32F
CANON CITY     CLOUDY    66  64  94 E7        30.27S
WALSENBURG     CLOUDY    63  63 100 E8        30.29F
TRINIDAD       LGT RAIN  61  59  93 E8        30.28F
$$

COZ042>045-048>051-090-091-290900-
...NORTHEAST COLORADO...

CITY           SKY/WX    TMP DP  RH WIND       PRES   REMARKS
GREELEY ARPT   FAIR      67  60  78 NW7       30.16R
AKRON          FAIR      67  58  72 SW8       30.11F
BURLINGTON     MOCLDY    66  60  81 NW14      30.12S
WRAY           NOT AVBL
YUMA           FAIR      63  54  72 CALM      30.11S
STERLING       FAIR      68  66  94 N3        30.09R
HOLYOKE        FAIR      68  61  77 SW5       30.09F
FORT MORGAN    FAIR      66  58  74 CALM      30.13R
$$

COZ086-089-092>099-290900-
...SOUTHEAST COLORADO...

CITY           SKY/WX    TMP DP  RH WIND       PRES   REMARKS
PUEBLO         CLOUDY    66  62  87 S10       30.23S
LA JUNTA       CLOUDY    66  61  84 MISG      30.19R
LAMAR          RAIN      65  62  90 E12       30.12F
SPRINGFIELD      N/A     63  62  97 NE16      30.18S
$$




USA.gov is the U.S. government's official web portal to all federal, state and local government web resources and services.